Location: Chena
(64.8152°N, 147.9227°W)
Time: 22:42:16
(UTC+00:00)

Vanguard 2 - Pass Details

Date: 11 March 2021
Orbit: 552 x 2938 km, 32.9° (Epoch: 11 April)

Event Time Altitude Azimuth Distance (km) Brightness Sun altitude
Rises 14:18:15 0° 231° (SW) 5,458 - -13.9°
Exits shadow 14:22:20 - 217° (SW) 5,052 11.2 -13.5°
Reaches altitude 10° 14:24:21 10° 209° (SSW) 4,943 11.2 -13.3°
Maximum altitude 14:30:23 14° 184° (S) 4,993 11.4 -12.7°
Drops below altitude 10° 14:37:07 10° 160° (SSE) 5,608 11.9 -12.0°
Sets 14:45:10 0° 140° (SE) 6,783 12.7 -11.2°
